Flag for Netherlands Weather past 2 weeks in Almere, Netherlands

Now
75 °F

Passing clouds.


Feels Like: 78 °F
Forecast: 64 / 69 °F
Wind: 17 mph from Northeast

Location: Amsterdam Schiphol Airport

Current Time: Jul 24, 2014 at 12:44:55 PM

Latest Report: Jul 24, 2014 at 11:55 AM


Visibility: N/A

Pressure: 30.04 "Hg

Humidity: 57%

Dew point: 59 °F

Location of AlmereLocation

Historic Weather in Almere — Graph

°F

Almere temperature yesterday

Maximum temperature yesterday: 82 °F (at 3:25 PM)
Minimum temperature yesterday: 68 °F (at 5:25 AM)
Average temperature yesterday: 75 °F

Past Weeks' High & Low Weather Summary

 TemperatureHumidityPressure
High93 °F (Jul 19, 3:55 PM)100% (Jul 9, 3:55 PM)30.18 "Hg (Jul 9, 3:55 PM)
Low57 °F (Jul 15, 4:55 AM)30% (Jul 19, 3:55 PM)29.71 "Hg (Jul 13, 2:55 PM)
Average69 °F79%29.95 "Hg
* Reported Jul 9 2:55 PM — Jul 24 11:25 AM, Almere, Weather by CustomWeather, © 2014

Note: Actual official high and low records may vary slightly from our data, if they occured in-between our weather recording intervals... More about our weather records

Advertising

Almere weather history for previous 24 hours

 ConditionsComfort  
Time TempWeatherWind HumidityBarometerVisibility
11:25 AM
Jul 24
73 °FPassing clouds.17 mph61%30.04 "HgN/A
10:55 AM73 °FPassing clouds.15 mph61%30.04 "HgN/A
10:25 AM72 °FPassing clouds.15 mph61%30.04 "HgN/A
9:55 AM70 °FPassing clouds.14 mph64%30.04 "HgN/A
9:25 AM70 °FPassing clouds.15 mph69%30.04 "HgN/A
8:55 AM70 °FSunny.13 mph64%30.04 "Hg10 mi
8:25 AM70 °FPassing clouds.12 mph64%30.04 "HgN/A
7:55 AM68 °FPassing clouds.14 mph73%30.04 "HgN/A
7:25 AM68 °FPassing clouds.9 mph69%30.04 "HgN/A
6:55 AM66 °FSunny.10 mph73%30.04 "Hg10 mi
6:25 AM66 °FClear.10 mph73%30.04 "Hg10 mi
5:55 AM66 °FClear.10 mph73%30.04 "Hg10 mi
5:25 AM66 °FClear.10 mph73%30.04 "Hg10 mi
4:55 AM66 °FClear.8 mph78%30.04 "Hg10 mi
4:25 AM66 °FPassing clouds.9 mph78%30.04 "HgN/A
3:55 AM68 °FClear.10 mph73%30.04 "Hg10 mi
2:55 AM70 °FClear.13 mph69%30.04 "Hg10 mi
2:25 AM70 °FPassing clouds.12 mph69%30.04 "HgN/A
1:55 AM70 °FPassing clouds.10 mph73%30.04 "HgN/A
1:25 AM70 °FClear.10 mph78%30.04 "Hg10 mi
12:55 AM70 °FClear.8 mph78%30.04 "Hg10 mi
12:25 AM70 °FClear.10 mph78%30.07 "Hg10 mi
11:55 PM
Jul 23
70 °FPassing clouds.10 mph78%30.07 "HgN/A
11:25 PM72 °FPassing clouds.10 mph73%30.07 "HgN/A
10:55 PM72 °FClear.12 mph73%30.07 "Hg10 mi
10:25 PM72 °FPassing clouds.14 mph73%30.07 "HgN/A
9:55 PM73 °FPassing clouds.13 mph69%30.04 "HgN/A
8:55 PM75 °FPassing clouds.14 mph65%30.04 "HgN/A
8:25 PM77 °FPassing clouds.16 mph57%30.04 "HgN/A
7:55 PM77 °FPassing clouds.13 mph54%30.04 "HgN/A
7:25 PM79 °FPassing clouds.17 mph51%30.04 "HgN/A
6:55 PM79 °FPassing clouds.17 mph48%30.04 "HgN/A
6:25 PM81 °FPassing clouds.18 mph48%30.04 "HgN/A
5:55 PM81 °FPassing clouds.18 mph51%30.04 "HgN/A
5:25 PM81 °FPassing clouds.18 mph45%30.07 "HgN/A
4:55 PM81 °FPassing clouds.21 mph48%30.07 "HgN/A
4:25 PM81 °FPassing clouds.20 mph45%30.07 "HgN/A
3:55 PM82 °FPassing clouds.18 mph48%30.07 "HgN/A
3:25 PM82 °FPassing clouds.18 mph45%30.07 "HgN/A
2:55 PM81 °FPassing clouds.20 mph48%30.09 "HgN/A
2:25 PM81 °FPassing clouds.21 mph45%30.09 "HgN/A
1:25 PM81 °FPassing clouds.16 mph48%30.09 "HgN/A
12:55 PM79 °FPassing clouds.15 mph51%30.09 "HgN/A
Weather by CustomWeather, © 2014

See weather overviewHow to use our weather pages